ASX360 LIRF-LIPQ

Flight info

Callsign ASX360
Flight time 0h 54m
Altitude 34000
Route SOVAN DCT AMTEL DCT CHI
Aircraft B38M/M-SDE1FGHILORVWXY/HB1

Departure

Time 2026-05-01 09:10
Airport Rome–Fiumicino Leonardo da Vinci International Airport (LIRF)

Arrival

Time 2026-05-01 10:05
Airport Trieste Airport (LIPQ)
Time Latitude Longitude Altitude Speed Heading
2026-05-01 08:54 41.79707 12.26721 17 ft 0 kts 250°
2026-05-01 09:00 41.79703 12.26706 17 ft 3 kts 250°
2026-05-01 09:01 41.79699 12.26676 17 ft 4 kts 262°
2026-05-01 09:01 41.79701 12.26668 17 ft 0 kts 307°
2026-05-01 09:01 41.79709 12.26657 17 ft 4 kts 315°
2026-05-01 09:01 41.79746 12.26631 17 ft 9 kts 338°
2026-05-01 09:02 41.79826 12.26591 17 ft 15 kts 340°
2026-05-01 09:02 41.79922 12.26544 18 ft 11 kts 340°
2026-05-01 09:02 41.80001 12.26505 17 ft 13 kts 340°
2026-05-01 09:02 41.80096 12.26459 18 ft 15 kts 340°
2026-05-01 09:03 41.80128 12.26375 20 ft 10 kts 252°
2026-05-01 09:03 41.80124 12.26272 17 ft 18 kts 284°
2026-05-01 09:03 41.80194 12.26079 19 ft 26 kts 309°
2026-05-01 09:03 41.80331 12.26101 17 ft 22 kts 27°
2026-05-01 09:04 41.80465 12.26133 17 ft 18 kts 318°
2026-05-01 09:04 41.80466 12.25998 17 ft 15 kts 247°
2026-05-01 09:04 41.80426 12.25863 18 ft 17 kts 249°
2026-05-01 09:04 41.80378 12.25694 17 ft 21 kts 249°
2026-05-01 09:05 41.80324 12.25496 18 ft 24 kts 250°
2026-05-01 09:05 41.80264 12.25280 17 ft 26 kts 250°
2026-05-01 09:05 41.80208 12.25046 17 ft 27 kts 259°
2026-05-01 09:05 41.80184 12.24786 17 ft 29 kts 251°
2026-05-01 09:06 41.80113 12.24532 19 ft 26 kts 250°
2026-05-01 09:06 41.80048 12.24297 17 ft 28 kts 249°
2026-05-01 09:06 41.79986 12.24045 17 ft 29 kts 263°
2026-05-01 09:06 41.79923 12.23779 18 ft 31 kts 250°
2026-05-01 09:07 41.79789 12.23690 17 ft 22 kts 155°
2026-05-01 09:07 41.79638 12.23765 17 ft 24 kts 160°
2026-05-01 09:07 41.79477 12.23834 19 ft 26 kts 164°
2026-05-01 09:07 41.79300 12.23908 17 ft 28 kts 163°
2026-05-01 09:08 41.79110 12.23987 17 ft 29 kts 162°
2026-05-01 09:08 41.78909 12.24072 19 ft 31 kts 162°
2026-05-01 09:08 41.78705 12.24157 18 ft 29 kts 161°
2026-05-01 09:08 41.78508 12.24242 17 ft 31 kts 163°
2026-05-01 09:09 41.78321 12.24267 18 ft 15 kts 237°
2026-05-01 09:09 41.78308 12.24226 17 ft 4 kts 257°
2026-05-01 09:09 41.78298 12.24172 19 ft 8 kts 255°
2026-05-01 09:09 41.78274 12.24051 19 ft 15 kts 270°
2026-05-01 09:10 41.78357 12.23974 20 ft 22 kts 343°
2026-05-01 09:10 41.78691 12.23835 18 ft 93 kts 342°
2026-05-01 09:10 41.79562 12.23472 48 ft 166 kts 345°
2026-05-01 09:10 41.80751 12.23002 735 ft 188 kts 346°
2026-05-01 09:11 41.82020 12.22451 2043 ft 187 kts 342°
2026-05-01 09:11 41.83140 12.21639 3057 ft 195 kts 323°
2026-05-01 09:11 41.83904 12.19979 3590 ft 231 kts 281°
2026-05-01 09:11 41.83612 12.17806 4432 ft 245 kts 243°
2026-05-01 09:12 41.82818 12.15747 5217 ft 259 kts 257°
2026-05-01 09:12 41.82816 12.13300 5840 ft 270 kts 285°
2026-05-01 09:12 41.83191 12.10821 6744 ft 276 kts 283°
2026-05-01 09:12 41.83524 12.08249 7866 ft 279 kts 283°
2026-05-01 09:13 41.83849 12.05670 8836 ft 282 kts 284°
2026-05-01 09:13 41.84170 12.03065 9862 ft 283 kts 284°
2026-05-01 09:13 41.84493 12.00401 10730 ft 290 kts 284°
2026-05-01 09:13 41.84820 11.97677 11195 ft 309 kts 284°
2026-05-01 09:14 41.85171 11.94742 11573 ft 329 kts 284°
2026-05-01 09:14 41.85538 11.91654 12151 ft 342 kts 284°
2026-05-01 09:14 41.85914 11.88490 13001 ft 343 kts 284°
2026-05-01 09:14 41.86292 11.85301 13861 ft 348 kts 284°
2026-05-01 09:15 41.86675 11.82061 14608 ft 352 kts 285°
2026-05-01 09:15 41.87288 11.78911 15358 ft 346 kts 300°
2026-05-01 09:15 41.88619 11.76305 16089 ft 338 kts 320°
2026-05-01 09:15 41.90520 11.74545 16784 ft 335 kts 339°
2026-05-01 09:16 41.92756 11.73780 17503 ft 334 kts 356°
2026-05-01 09:16 41.95117 11.74046 18272 ft 338 kts 13°
2026-05-01 09:16 41.97280 11.75234 18928 ft 345 kts 27°
2026-05-01 09:17 42.00938 11.79646 20110 ft 358 kts 37°
2026-05-01 09:17 42.02983 11.81434 20654 ft 354 kts 20°
2026-05-01 09:17 42.07818 11.82743 21753 ft 358 kts
2026-05-01 09:18 42.10321 11.83072 22326 ft 361 kts
2026-05-01 09:18 42.15377 11.83584 23457 ft 367 kts
2026-05-01 09:19 42.20525 11.84024 24396 ft 373 kts
2026-05-01 09:19 42.23126 11.84238 24862 ft 376 kts
2026-05-01 09:19 42.25746 11.84452 25277 ft 379 kts
2026-05-01 09:20 42.31064 11.84884 26129 ft 385 kts
2026-05-01 09:20 42.36490 11.85325 26954 ft 391 kts
2026-05-01 09:21 42.41932 11.85767 27759 ft 396 kts
2026-05-01 09:21 42.44695 11.85992 28125 ft 400 kts
2026-05-01 09:21 42.50325 11.86451 28225 ft 406 kts
2026-05-01 09:22 42.61541 11.87367 28243 ft 404 kts
2026-05-01 09:23 42.69963 11.88057 28268 ft 402 kts
2026-05-01 09:24 42.78358 11.88746 28281 ft 402 kts
2026-05-01 09:24 42.83899 11.88354 28276 ft 404 kts 343°
2026-05-01 09:25 42.88993 11.85030 28298 ft 409 kts 336°
2026-05-01 09:26 42.96554 11.79602 28311 ft 410 kts 336°
2026-05-01 09:26 43.04101 11.74074 28325 ft 410 kts 336°
2026-05-01 09:27 43.11644 11.68525 28321 ft 411 kts 337°
2026-05-01 09:28 43.16670 11.64820 28321 ft 411 kts 337°
2026-05-01 09:28 43.21910 11.62070 28321 ft 397 kts 359°
2026-05-01 09:28 43.24639 11.62273 28338 ft 391 kts 12°
2026-05-01 09:29 43.29969 11.63790 28322 ft 392 kts 14°
2026-05-01 09:30 43.37915 11.66478 28328 ft 391 kts 16°
2026-05-01 09:30 43.45814 11.69268 28332 ft 390 kts 16°
2026-05-01 09:31 43.51080 11.71139 28338 ft 390 kts 17°
2026-05-01 09:32 43.58942 11.73936 28351 ft 390 kts 17°
2026-05-01 09:32 43.66808 11.76745 28348 ft 389 kts 17°
2026-05-01 09:33 43.72047 11.78619 28349 ft 389 kts 17°
2026-05-01 09:34 43.79881 11.81427 28363 ft 389 kts 17°
2026-05-01 09:34 43.87728 11.84249 28358 ft 388 kts 17°
2026-05-01 09:35 43.94739 11.86776 28376 ft 389 kts 18°
2026-05-01 09:36 43.99973 11.88667 28387 ft 388 kts 18°
2026-05-01 09:36 44.05165 11.90546 28376 ft 388 kts 18°
2026-05-01 09:37 44.10396 11.92442 28384 ft 387 kts 18°
2026-05-01 09:37 44.18227 11.95288 28378 ft 387 kts 18°
2026-05-01 09:38 44.26008 11.98124 28370 ft 387 kts 18°
2026-05-01 09:39 44.33812 12.00975 28374 ft 386 kts 18°
2026-05-01 09:39 44.39016 12.02880 28378 ft 386 kts 18°
2026-05-01 09:40 44.46817 12.05744 28384 ft 386 kts 18°
2026-05-01 09:41 44.52052 12.07670 28391 ft 386 kts 18°
2026-05-01 09:41 44.59784 12.10520 28398 ft 370 kts 18°
2026-05-01 09:42 44.62216 12.11418 28416 ft 352 kts 19°
2026-05-01 09:42 44.64536 12.12277 28201 ft 342 kts 19°
2026-05-01 09:42 44.69305 12.14043 27079 ft 361 kts 19°
2026-05-01 09:43 44.74194 12.15857 26059 ft 363 kts 19°
2026-05-01 09:43 44.76642 12.16766 25538 ft 361 kts 19°
2026-05-01 09:43 44.79072 12.17668 25019 ft 359 kts 19°
2026-05-01 09:44 44.83856 12.19449 24016 ft 355 kts 20°
2026-05-01 09:44 44.86242 12.20336 23431 ft 352 kts 19°
2026-05-01 09:44 44.88602 12.21215 22904 ft 349 kts 19°
2026-05-01 09:45 44.90939 12.22087 22430 ft 345 kts 19°
2026-05-01 09:45 44.95520 12.23799 21519 ft 338 kts 19°
2026-05-01 09:45 44.97786 12.24646 21067 ft 335 kts 19°
2026-05-01 09:46 45.00042 12.25490 20629 ft 332 kts 19°
2026-05-01 09:46 45.02280 12.26329 20199 ft 330 kts 18°
2026-05-01 09:46 45.04482 12.27169 19770 ft 327 kts 21°
2026-05-01 09:46 45.06470 12.28651 19254 ft 323 kts 40°
2026-05-01 09:47 45.07946 12.30987 18875 ft 321 kts 53°
2026-05-01 09:47 45.09201 12.33589 18442 ft 320 kts 54°
2026-05-01 09:47 45.10366 12.36135 18007 ft 324 kts 56°
2026-05-01 09:47 45.11571 12.38868 17590 ft 328 kts 56°
2026-05-01 09:48 45.12754 12.41603 17192 ft 328 kts 57°
2026-05-01 09:48 45.13939 12.44378 16807 ft 325 kts 57°
2026-05-01 09:48 45.15086 12.47087 16431 ft 309 kts 57°
2026-05-01 09:48 45.16152 12.49617 16084 ft 295 kts 57°
2026-05-01 09:49 45.17192 12.52093 15726 ft 283 kts 57°
2026-05-01 09:49 45.18164 12.54409 15407 ft 272 kts 57°
2026-05-01 09:49 45.19123 12.56700 15101 ft 267 kts 57°
2026-05-01 09:49 45.20072 12.58965 14768 ft 267 kts 57°
2026-05-01 09:50 45.21027 12.61249 14449 ft 268 kts 57°
2026-05-01 09:50 45.21976 12.63520 14120 ft 268 kts 57°
2026-05-01 09:50 45.22916 12.65772 13774 ft 267 kts 57°
2026-05-01 09:50 45.23869 12.68058 13435 ft 266 kts 57°
2026-05-01 09:51 45.24814 12.70325 13114 ft 265 kts 57°
2026-05-01 09:51 45.25751 12.72573 12804 ft 264 kts 57°
2026-05-01 09:51 45.26685 12.74818 12485 ft 264 kts 57°
2026-05-01 09:51 45.27613 12.77049 12180 ft 263 kts 58°
2026-05-01 09:52 45.28541 12.79278 11866 ft 262 kts 57°
2026-05-01 09:52 45.29476 12.81517 11527 ft 262 kts 58°
2026-05-01 09:52 45.30391 12.83710 11395 ft 257 kts 58°
2026-05-01 09:52 45.31312 12.85897 11261 ft 257 kts 55°
2026-05-01 09:53 45.32437 12.87859 11108 ft 256 kts 48°
2026-05-01 09:53 45.33596 12.89738 10979 ft 256 kts 48°
2026-05-01 09:53 45.34765 12.91643 10857 ft 256 kts 48°
2026-05-01 09:53 45.35935 12.93553 10730 ft 255 kts 49°
2026-05-01 09:54 45.37095 12.95450 10614 ft 255 kts 49°
2026-05-01 09:54 45.38266 12.97369 10483 ft 255 kts 49°
2026-05-01 09:54 45.39431 12.99278 10319 ft 255 kts 49°
2026-05-01 09:54 45.40591 13.01180 10013 ft 255 kts 49°
2026-05-01 09:55 45.41756 13.03093 9714 ft 255 kts 49°
2026-05-01 09:55 45.42921 13.05008 9434 ft 254 kts 49°
2026-05-01 09:55 45.44083 13.06918 9171 ft 254 kts 49°
2026-05-01 09:55 45.45241 13.08822 8898 ft 254 kts 49°
2026-05-01 09:56 45.46389 13.10712 8627 ft 254 kts 49°
2026-05-01 09:56 45.47531 13.12592 8433 ft 251 kts 49°
2026-05-01 09:56 45.48300 13.13860 8347 ft 251 kts 49°
2026-05-01 09:56 45.49636 13.16063 8193 ft 251 kts 49°
2026-05-01 09:57 45.50779 13.17950 8067 ft 250 kts 49°
2026-05-01 09:57 45.51913 13.19821 7922 ft 250 kts 48°
2026-05-01 09:57 45.53262 13.21392 7653 ft 251 kts 32°
2026-05-01 09:57 45.54747 13.22693 7389 ft 252 kts 33°
2026-05-01 09:58 45.56229 13.24009 7190 ft 250 kts 33°
2026-05-01 09:58 45.57705 13.25326 7047 ft 250 kts 34°
2026-05-01 09:58 45.58928 13.27043 6862 ft 248 kts 55°
2026-05-01 09:58 45.60027 13.28924 6618 ft 248 kts 36°
2026-05-01 09:59 45.61651 13.29717 6033 ft 254 kts
2026-05-01 09:59 45.63390 13.29178 5429 ft 259 kts 346°
2026-05-01 09:59 45.65155 13.28865 4787 ft 256 kts
2026-05-01 09:59 45.66945 13.28967 4171 ft 259 kts
2026-05-01 10:00 45.68756 13.29007 3541 ft 261 kts
2026-05-01 10:00 45.70582 13.29027 2926 ft 264 kts
2026-05-01 10:00 45.72397 13.29035 2603 ft 254 kts
2026-05-01 10:00 45.74110 13.29032 2500 ft 236 kts
2026-05-01 10:01 45.75693 13.29023 2429 ft 220 kts
2026-05-01 10:01 45.77158 13.29019 2345 ft 203 kts 359°
2026-05-01 10:01 45.78485 13.29009 2291 ft 180 kts 359°
2026-05-01 10:01 45.79685 13.29007 2239 ft 170 kts 359°
2026-05-01 10:02 45.80835 13.29024 2083 ft 152 kts
2026-05-01 10:02 45.81731 13.29665 1932 ft 143 kts 44°
2026-05-01 10:02 45.82254 13.30865 1854 ft 143 kts 69°
2026-05-01 10:02 45.82474 13.32253 1749 ft 143 kts 82°
2026-05-01 10:03 45.82575 13.33674 1614 ft 143 kts 84°
2026-05-01 10:03 45.82715 13.35073 1415 ft 141 kts 77°
2026-05-01 10:03 45.82855 13.36462 1219 ft 141 kts 86°
2026-05-01 10:03 45.82858 13.37866 1073 ft 141 kts 91°
2026-05-01 10:04 45.82814 13.39278 870 ft 141 kts 91°
2026-05-01 10:04 45.82807 13.40664 677 ft 140 kts 88°
2026-05-01 10:04 45.82818 13.42056 486 ft 139 kts 89°
2026-05-01 10:04 45.82805 13.43443 312 ft 139 kts 91°
2026-05-01 10:05 45.82792 13.44823 100 ft 138 kts 90°
2026-05-01 10:05 45.82787 13.45994 48 ft 63 kts 89°
2026-05-01 10:05 45.82788 13.46122 48 ft 0 kts 86°
2026-05-01 10:06 45.82789 13.46153 48 ft 9 kts 90°
2026-05-01 10:06 45.82788 13.46254 48 ft 20 kts 88°
2026-05-01 10:06 45.82787 13.46562 47 ft 25 kts 90°
2026-05-01 10:07 45.82751 13.46792 49 ft 18 kts 153°
2026-05-01 10:07 45.82634 13.46811 48 ft 14 kts 146°
2026-05-01 10:07 45.82617 13.46885 50 ft 12 kts 93°
2026-05-01 10:07 45.82620 13.47009 50 ft 13 kts 93°
2026-05-01 10:08 45.82623 13.47349 50 ft 21 kts 98°
2026-05-01 10:08 45.82613 13.47587 50 ft 27 kts 89°
2026-05-01 10:08 45.82571 13.47870 48 ft 32 kts 126°
2026-05-01 10:09 45.82414 13.48070 50 ft 32 kts 140°
2026-05-01 10:09 45.82279 13.48238 50 ft 17 kts 133°
2026-05-01 10:09 45.82267 13.48389 50 ft 17 kts 79°
2026-05-01 10:09 45.82270 13.48450 50 ft 1 kts 129°
2026-05-01 10:10 45.82259 13.48466 47 ft 1 kts 149°
2026-05-01 10:10 45.82246 13.48471 50 ft 3 kts 170°
2026-05-01 10:10 45.82201 13.48480 50 ft 2 kts 171°